CW3112 Weather Reports


time (UTC)temp
C
wind
direction
speed
KPH
gust
KPH
rain 1hr
cm
rain 24hr
cm
rain mn
cm
humidity
%
barometer
mb
20260506124204 20 84 0.0 4.8 0.00 0.00 0.00 87 1014.9
20260506123204 19 80 0.0 4.8 0.00 0.00 0.00 88 1015.0
20260506121204 19 96 1.6 4.8 0.00 0.00 0.00 87 1014.9
20260506120204 18 134 0.0 3.2 0.00 0.00 0.00 88 1014.8
20260506114203 18 131 0.0 3.2 0.00 0.00 0.00 87 1014.5
20260506113204 18 153 0.0 11.3 0.00 0.00 0.00 87 1014.4
20260506111204 18 105 1.6 4.8 0.00 0.00 0.00 87 1014.4
20260506110204 19 117 0.0 4.8 0.00 0.00 0.00 86 1014.2
20260506104204 19 132 1.6 8.0 0.00 0.00 0.00 85 1013.8
20260506103204 19 125 1.6 9.7 0.00 0.00 0.00 85 1013.7
20260506101204 19 106 0.0 0.0 0.00 0.00 0.00 84 1013.4
20260506100204 19 166 0.0 4.8 0.00 0.00 0.00 83 1012.9
20260506094204 19 96 0.0 4.8 0.00 0.00 0.00 82 1013.0
20260506093204 19 78 1.6 16.1 0.00 0.00 0.00 81 1013.1
20260506091204 20 180 0.0 3.2 0.00 0.00 0.00 79 1013.1
20260506090204 20 52 0.0 0.0 0.00 0.00 0.00 79 1013.0
20260506084203 20 190 0.0 12.9 0.00 0.00 0.00 78 1013.1
20260506083204 20 86 0.0 4.8 0.00 0.00 0.00 77 1013.0
20260506080204 20 49 0.0 8.0 0.00 0.00 0.00 75 1013.1
20260506073204 20 246 0.0 16.1 0.00 0.00 0.00 72 1013.1
20260506071204 21 118 0.0 4.8 0.00 0.00 0.00 71 1013.6
20260506070204 21 128 1.6 8.0 0.00 0.00 0.00 71 1013.5
20260506061204 20 47 0.0 9.7 0.00 0.00 0.00 67 1014.0
20260506051204 20 204 0.0 0.0 0.00 0.00 0.00 60 1013.8
20260506044204 20 204 0.0 0.0 0.00 0.00 0.00 60 1014.0
20260506043204 20 204 0.0 1.6 0.00 0.00 0.00 60 1014.0
20260506033205 21 241 0.0 0.0 0.00 0.00 0.00 58 1014.0
20260506030204 21 162 0.0 11.3 0.00 0.00 0.00 55 1014.1
20260506024204 21 123 0.0 0.0 0.00 0.00 0.00 56 1014.1
20260506021204 21 123 0.0 0.0 0.00 0.00 0.00 54 1013.6
20260506020204 21 123 0.0 0.0 0.00 0.00 0.00 55 1013.5
20260506014204 21 123 0.0 0.0 0.00 0.00 0.00 54 1013.5
20260506013204 22 123 0.0 0.0 0.00 0.00 0.00 53 1013.7
20260506011204 22 123 0.0 0.0 0.00 0.00 0.00 51 1013.6
20260506010204 23 123 0.0 0.0 0.00 0.00 0.00 51 1013.5
20260506004204 23 123 0.0 3.2 0.00 0.00 0.00 48 1013.6
20260506003204 23 17 0.0 4.8 0.00 0.00 0.00 48 1013.7
20260506000205 24 78 0.0 1.6 0.00 0.00 0.00 49 1013.3
20260505234204 25 122 0.0 0.0 0.00 0.00 0.00 46 1013.4
20260505233203 25 122 0.0 8.0 0.00 0.00 0.00 44 1013.4
20260505231204 25 196 0.0 4.8 0.00 0.00 0.00 43 1013.6
20260505230204 26 222 0.0 9.7 0.00 0.00 0.00 43 1013.3
20260505224203 26 110 1.6 3.2 0.00 0.00 0.00 42 1013.3
20260505221203 27 342 1.6 4.8 0.00 0.00 0.00 41 1013.2
20260505220204 27 142 0.0 14.5 0.00 0.00 0.00 40 1013.2
20260505214203 28 129 1.6 11.3 0.00 0.00 0.00 39 1013.4
20260505213204 27 134 0.0 4.8 0.00 0.00 0.00 41 1013.7
20260505211203 27 126 1.6 4.8 0.00 0.00 0.00 41 1013.7
20260505210204 27 176 0.0 8.0 0.00 0.00 0.00 41 1013.6
20260505204204 27 128 0.0 4.8 0.00 0.00 0.00 42 1013.9
20260505200204 27 117 0.0 4.8 0.00 0.00 0.00 41 1014.4
20260505194204 27 120 0.0 1.6 0.00 0.00 0.00 44 1014.8
20260505193203 27 195 1.6 12.9 0.00 0.00 0.00 43 1014.7
20260505191203 27 130 0.0 12.9 0.00 0.00 0.00 42 1014.9
20260505190204 27 50 0.0 9.7 0.00 0.00 0.00 45 1015.0
20260505184203 26 116 3.2 9.7 0.00 0.00 0.00 42 1015.0
20260505183204 27 105 1.6 9.7 0.00 0.00 0.00 44 1015.0
20260505180203 26 147 1.6 14.5 0.00 0.00 0.00 43 1015.8
20260505174204 26 77 1.6 14.5 0.00 0.00 0.00 44 1016.1
20260505173203 26 46 3.2 16.1 0.00 0.00 0.00 42 1016.3
20260505171204 26 96 1.6 8.0 0.00 0.00 0.00 45 1016.3
20260505170204 26 135 1.6 11.3 0.00 0.00 0.00 48 1016.2
20260505161204 26 174 1.6 11.3 0.00 0.00 0.00 48 1016.5
20260505160203 26 152 1.6 4.8 0.00 0.00 0.00 47 1016.7
20260505153203 25 121 3.2 8.0 0.00 0.00 0.00 48 1016.5
20260505151203 24 76 1.6 3.2 0.00 0.00 0.00 56 1016.6
20260505150204 23 177 0.0 0.0 0.00 0.00 0.00 62 1016.6
20260505140204 16 177 0.0 0.0 0.00 0.00 0.00 80 1016.3
20260505130203 12 177 0.0 0.0 0.00 0.00 0.00 93 1015.9